Freeland, MI

9:47 AM EST on February 06, 2016 (GMT -0500)
MBS International

Weather History for KMBS - October, 2014

Change the Weather History Date:

Friday, October 17, 2014

  Actual Average Record
Temperature  
Mean Temperature 55 °F 49 °F  
Max Temperature 63 °F 59 °F 75 °F (1996)
Min Temperature 47 °F 40 °F 24 °F (2002)
Degree Days  
Heating Degree Days 10    
Month to date heating degree days 178  
Since 1 July heating degree days 344  
Cooling Degree Days 0    
Month to date cooling degree days 1  
Year to date cooling degree days 539  
Growing Degree Days 4 (Base 50)    
Moisture  
Dew Point 49 °F    
Average Humidity 77    
Maximum Humidity 93    
Minimum Humidity 60    
Precipitation  
Precipitation 0.07 in 0.07 in 0.73 in (2006)
Month to date precipitation 1.99 1.49  
Year to date precipitation 27.79 25.84  
Snow  
Snow 0.00 in - - ()
Month to date snowfall 0.0  
Since 1 July snowfall 0.0  
Since 1 September snowfall 0.0  
Snow Depth 0.00 in    
Sea Level Pressure  
Sea Level Pressure 29.57 in    
Wind  
Wind Speed 14 mph (WSW)    
Max Wind Speed 26 mph    
Max Gust Speed 34 mph    
Visibility 9 miles    
Events Rain    
T = Trace of Precipitation, MM = Missing Value Source: NWS Daily Summary

Daily Weather History Graph

Daily Weather History Graph

Search for Another Location

Airport or City:

Trip Planner

Search our weather history database for the weather conditions in past years. The results will help you decide how hot, cold, wet, or windy it might be!

Date:

Astronomy

Oct. 17, 2014 Rise Set
Actual Time 7:52 AM EDT 6:49 PM EDT
Civil Twilight 7:23 AM EDT 7:18 PM EDT
Nautical Twilight 6:50 AM EDT 7:51 PM EDT
Astronomical Twilight 6:17 AM EDT 8:24 PM EDT
Moon 1:46 AM EDT (10/17) 3:45 PM EDT (10/17)
Length of Visible Light 11h 54m
Length of Day
10h 56m
Waning Crescent, 33% of the Moon is Illuminated
Oct 17
Waning Crescent
Oct 23
New
Oct 30
First Quarter
Nov 6
Full
Nov 14
Last Quarter

Hourly Weather History & Observations

Time (EDT) Temp. Windchill Dew Point Humidity Pressure Visibility Wind Dir Wind Speed Gust Speed Precip Events Conditions
12:30 AM 55.0 °F - 50.0 °F 83% 29.66 in 8.0 mi SW 11.5 mph - N/A   Overcast
12:39 AM 54.0 °F - 51.1 °F 90% 29.65 in 7.0 mi SW 10.4 mph - N/A   Overcast
12:53 AM 54.0 °F - 51.1 °F 90% 29.65 in 6.0 mi SW 9.2 mph - N/A   Overcast
1:01 AM 53.6 °F - 51.8 °F 94% 29.65 in 6.0 mi SW 11.5 mph - N/A   Overcast
1:53 AM 54.0 °F - 52.0 °F 93% 29.64 in 7.0 mi SW 10.4 mph - N/A   Overcast
2:19 AM 54.0 °F - 51.1 °F 90% 29.63 in 10.0 mi SW 10.4 mph - N/A   Overcast
2:53 AM 54.0 °F - 51.1 °F 90% 29.63 in 10.0 mi SW 8.1 mph - N/A   Overcast
3:41 AM 54.0 °F - 51.1 °F 90% 29.61 in 10.0 mi SW 9.2 mph - N/A   Overcast
3:53 AM 54.0 °F - 51.1 °F 90% 29.60 in 9.0 mi SW 9.2 mph - N/A   Overcast
4:02 AM 54.0 °F - 51.1 °F 90% 29.59 in 9.0 mi SW 9.2 mph - N/A   Overcast
4:13 AM 54.0 °F - 52.0 °F 93% 29.59 in 8.0 mi SW 11.5 mph - N/A   Overcast
4:34 AM 54.0 °F - 51.1 °F 90% 29.58 in 8.0 mi SW 10.4 mph - N/A   Overcast
4:53 AM 55.0 °F - 51.1 °F 86% 29.58 in 8.0 mi SW 8.1 mph - N/A   Overcast
5:02 AM 55.0 °F - 52.0 °F 89% 29.58 in 8.0 mi SSW 4.6 mph - N/A   Overcast
5:53 AM 55.0 °F - 52.0 °F 89% 29.55 in 7.0 mi SSW 8.1 mph - N/A   Overcast
6:16 AM 55.0 °F - 51.1 °F 86% 29.54 in 7.0 mi SSW 10.4 mph - N/A   Overcast
6:31 AM 55.0 °F - 51.1 °F 86% 29.54 in 7.0 mi SSW 10.4 mph - N/A   Overcast
6:53 AM 55.0 °F - 52.0 °F 89% 29.55 in 7.0 mi SSW 8.1 mph - N/A   Overcast
7:41 AM 55.9 °F - 52.0 °F 87% 29.54 in 9.0 mi SSW 10.4 mph - N/A   Overcast
7:51 AM 55.4 °F - 51.8 °F 88% 29.54 in 9.0 mi SSW 9.2 mph - N/A   Overcast
7:53 AM 55.9 °F - 52.0 °F 87% 29.54 in 9.0 mi SSW 9.2 mph - N/A   Overcast
8:27 AM 55.9 °F - 52.0 °F 87% 29.53 in 8.0 mi SSW 9.2 mph - N/A   Overcast
8:53 AM 55.9 °F - 52.0 °F 87% 29.53 in 9.0 mi South 10.4 mph - N/A   Overcast
9:01 AM 55.9 °F - 52.0 °F 87% 29.53 in 9.0 mi South 9.2 mph - N/A   Overcast
9:53 AM 57.0 °F - 51.1 °F 81% 29.52 in 10.0 mi SSW 9.2 mph - N/A   Overcast
10:01 AM 57.0 °F - 51.1 °F 81% 29.52 in 10.0 mi SW 11.5 mph - N/A   Overcast
10:53 AM 57.0 °F - 50.0 °F 77% 29.50 in 10.0 mi SW 15.0 mph 23.0 mph N/A   Overcast
11:53 AM 57.0 °F - 50.0 °F 77% 29.50 in 9.0 mi SW 20.7 mph 25.3 mph N/A   Overcast
12:48 PM 57.2 °F - 51.8 °F 82% 29.48 in 10.0 mi SSW 13.8 mph 19.6 mph N/A   Overcast
12:53 PM 59.0 °F - 51.1 °F 75% 29.48 in 10.0 mi SSW 12.7 mph - N/A   Overcast
1:53 PM 61.0 °F - 51.1 °F 70% 29.47 in 10.0 mi SW 16.1 mph 25.3 mph N/A   Overcast
2:06 PM 63.0 °F - 51.1 °F 65% 29.45 in 10.0 mi SW 18.4 mph - N/A   Overcast
2:53 PM 62.1 °F - 48.9 °F 62% 29.45 in 10.0 mi WSW 13.8 mph - N/A   Overcast
3:53 PM 61.0 °F - 48.9 °F 64% 29.47 in 10.0 mi WSW 19.6 mph 29.9 mph N/A   Overcast
4:36 PM 59.0 °F - 48.0 °F 67% 29.48 in 10.0 mi West 20.7 mph 27.6 mph N/A   Overcast
4:53 PM 57.9 °F - 48.0 °F 70% 29.50 in 10.0 mi West 19.6 mph 29.9 mph N/A   Overcast
5:53 PM 55.9 °F - 46.9 °F 72% 29.52 in 10.0 mi West 18.4 mph 28.8 mph N/A   Overcast
6:53 PM 55.0 °F - 46.9 °F 74% 29.55 in 10.0 mi WSW 16.1 mph 23.0 mph N/A   Overcast
7:53 PM 55.0 °F - 46.9 °F 74% 29.57 in 10.0 mi West 15.0 mph - N/A   Overcast
8:02 PM 54.0 °F - 48.0 °F 80% 29.57 in 10.0 mi West 11.5 mph - 0.00 in Rain Light Rain
8:27 PM 54.0 °F - 48.0 °F 80% 29.57 in 10.0 mi West 12.7 mph - 0.00 in   Overcast
8:53 PM 54.0 °F - 46.9 °F 77% 29.58 in 10.0 mi West 16.1 mph - 0.00 in   Overcast
9:12 PM 53.1 °F - 45.0 °F 74% 29.59 in 10.0 mi WNW 17.3 mph 27.6 mph N/A   Overcast
9:28 PM 52.0 °F - 45.0 °F 77% 29.59 in 10.0 mi WNW 19.6 mph 25.3 mph 0.00 in Rain Light Rain
9:38 PM 52.0 °F - 44.1 °F 74% 29.60 in 10.0 mi West 19.6 mph 24.2 mph 0.00 in   Overcast
9:46 PM 52.0 °F - 44.1 °F 74% 29.60 in 10.0 mi WNW 16.1 mph 26.5 mph 0.00 in   Overcast
9:53 PM 52.0 °F - 44.1 °F 74% 29.61 in 10.0 mi WNW 15.0 mph - 0.00 in   Overcast
10:34 PM 50.0 °F - 44.6 °F 82% 29.62 in 10.0 mi NW 18.4 mph 25.3 mph N/A Rain Light Rain
10:53 PM 48.9 °F - 45.0 °F 86% 29.64 in 9.0 mi NW 17.3 mph 23.0 mph 0.02 in Rain Rain
11:35 PM 48.0 °F - 44.1 °F 86% 29.65 in 10.0 mi NW 13.8 mph - 0.04 in Rain Light Rain
11:44 PM 48.0 °F - 44.1 °F 86% 29.66 in 10.0 mi WNW 13.8 mph 20.7 mph 0.04 in Rain Light Rain
11:51 PM 46.4 °F 39.8 °F 42.8 °F 87% 29.66 in 10.0 mi NW 16.1 mph 24.2 mph 0.05 in Rain Light Rain
11:53 PM 46.9 °F - 43.0 °F 86% 29.67 in 10.0 mi WNW 15.0 mph 24.2 mph 0.05 in Rain Light Rain